EW7537 Weather Reports


time (UTC)temp
C
wind
direction
speed
KPH
gust
KPH
rain 1hr
cm
rain 24hr
cm
rain mn
cm
humidity
%
barometer
mb
20260503071704 9 239 0.0 0.0 0.00 0.00 0.00 62 1011.0
20260503071203 9 248 0.0 0.0 0.00 0.00 0.00 46 1011.0
20260503070704 9 234 0.0 0.0 0.00 0.00 0.00 63 1011.0
20260503070204 9 221 0.0 0.0 0.00 0.00 0.00 64 1011.0
20260503060204 9 239 0.0 0.0 0.00 0.00 0.00 65 1011.3
20260503054704 9 201 0.0 0.0 0.00 0.00 0.00 63 1011.5
20260503054204 8 192 0.0 0.0 0.00 0.00 0.00 54 1011.5
20260503053704 8 220 0.0 0.0 0.00 0.00 0.00 63 1011.5
20260503053204 8 194 0.0 0.0 0.00 0.00 0.00 56 1011.7
20260503052204 8 215 0.0 0.0 0.00 0.00 0.00 64 1011.8
20260503051703 8 202 0.0 0.0 0.00 0.00 0.00 63 1011.8
20260503051204 8 189 0.0 0.0 0.00 0.00 0.00 63 1011.8
20260503050704 8 180 0.0 0.0 0.00 0.00 0.00 62 1011.6
20260503050204 9 173 0.0 0.0 0.00 0.00 0.00 62 1011.6
20260503045703 9 180 0.0 0.0 0.00 0.00 0.00 47 1011.8
20260503045204 9 189 0.0 0.0 0.00 0.00 0.00 61 1011.8
20260503044704 9 230 0.0 0.0 0.00 0.00 0.00 50 1011.8
20260503044204 9 190 0.0 0.0 0.00 0.00 0.00 61 1011.8
20260503043704 9 203 0.0 0.0 0.00 0.00 0.00 44 1011.8
20260503043204 9 177 0.0 0.0 0.00 0.00 0.00 63 1012.1
20260503042704 8 215 0.0 0.0 0.00 0.00 0.00 46 1012.1
20260503042204 8 206 0.0 0.0 0.00 0.00 0.00 66 1012.2
20260503041704 8 180 0.0 0.0 0.00 0.00 0.00 67 1012.2
20260503041204 8 180 0.0 0.0 0.00 0.00 0.00 67 1012.2
20260503040704 8 174 0.0 0.0 0.00 0.00 0.00 67 1012.2
20260503040204 8 180 0.0 0.0 0.00 0.00 0.00 67 1012.2
20260503035704 8 180 0.0 0.0 0.00 0.00 0.00 68 1012.4
20260503035204 8 180 0.0 0.0 0.00 0.00 0.00 68 1012.4
20260503034204 8 158 0.0 0.0 0.00 0.00 0.00 66 1012.5
20260503033704 8 180 0.0 0.0 0.00 0.00 0.00 65 1012.5
20260503033204 8 180 0.0 0.0 0.00 0.00 0.00 62 1012.7
20260503032704 9 158 0.0 0.0 0.00 0.00 0.00 63 1012.7
20260503031205 9 112 0.0 0.0 0.00 0.00 0.00 61 1012.8
20260503030704 9 180 0.0 0.0 0.00 0.00 0.00 47 1013.0
20260503024704 9 180 0.0 0.0 0.00 0.00 0.00 49 1013.1
20260503023204 9 197 0.0 0.0 0.00 0.00 0.00 60 1013.2
20260503022704 9 180 0.0 0.0 0.00 0.00 0.00 45 1013.2
20260503022204 9 180 0.0 0.0 0.00 0.00 0.00 60 1013.3
20260503021704 9 202 0.0 0.0 0.00 0.00 0.00 59 1013.3
20260503020703 10 180 0.0 0.0 0.00 0.00 0.00 58 1013.2
20260503015704 10 180 0.0 0.0 0.00 0.00 0.00 57 1013.2
20260503015204 10 225 0.0 0.0 0.00 0.00 0.00 57 1013.2
20260503014704 10 196 0.0 0.0 0.00 0.00 0.00 56 1013.2
20260503014204 11 202 0.0 0.0 0.00 0.00 0.00 54 1013.3
20260503013704 11 229 0.0 0.0 0.00 0.00 0.00 53 1013.3
20260503013204 11 210 0.0 0.0 0.00 0.00 0.00 51 1013.4
20260503012205 12 225 0.0 0.0 0.00 0.00 0.00 49 1013.4
20260503011704 12 225 0.0 0.0 0.00 0.00 0.00 49 1013.4
20260503011204 12 202 0.0 0.0 0.00 0.00 0.00 47 1013.4
20260503010704 12 202 0.0 0.0 0.00 0.00 0.00 45 1013.4
20260503010204 13 248 0.0 0.0 0.00 0.00 0.00 44 1013.4
20260503005704 13 270 0.0 0.0 0.00 0.00 0.00 27 1013.5
20260503005204 13 262 0.0 0.0 0.00 0.00 0.00 43 1013.5
20260503004703 13 270 0.0 0.0 0.00 0.00 0.00 43 1013.5
20260503004204 13 244 0.0 0.0 0.00 0.00 0.00 43 1013.4
20260503002704 13 270 0.0 0.0 0.00 0.00 0.00 41 1013.5
20260503002204 14 256 0.0 4.8 0.00 0.00 0.00 40 1013.5
20260503001704 14 242 0.0 0.0 0.00 0.00 0.00 40 1013.6
20260503001204 14 270 0.0 0.0 0.00 0.00 0.00 27 1013.6
20260503000704 14 270 0.0 0.0 0.00 0.00 0.00 38 1013.6
20260503000204 15 257 0.0 0.0 0.00 0.00 0.00 27 1013.6
20260502235704 15 248 0.0 0.0 0.00 0.00 0.00 38 1013.7
20260502235203 15 285 0.0 0.0 0.00 0.00 0.00 29 1013.7
20260502234704 15 270 0.0 0.0 0.00 0.00 0.00 37 1013.7
20260502234204 15 293 0.0 1.6 0.00 0.00 0.00 27 1013.7
20260502233204 16 256 0.0 9.7 0.00 0.00 0.00 35 1013.7
20260502232704 16 270 0.0 0.0 0.00 0.00 0.00 36 1013.7
20260502232203 16 270 0.0 0.0 0.00 0.00 0.00 35 1013.7
20260502231704 16 268 0.0 1.6 0.00 0.00 0.00 27 1013.7
20260502230706 16 250 3.2 14.5 0.00 0.00 0.00 34 1013.7
20260502230204 17 264 0.0 0.0 0.00 0.00 0.00 34 1013.7
20260502225703 17 300 0.0 19.3 0.00 0.00 0.00 34 1013.9
20260502225204 17 300 0.0 1.6 0.00 0.00 0.00 34 1013.9
20260502224704 16 270 0.0 12.9 0.00 0.00 0.00 34 1013.9
20260502224203 17 270 0.0 4.8 0.00 0.00 0.00 34 1014.0
20260502223704 16 256 0.0 0.0 0.00 0.00 0.00 35 1014.0
20260502223203 16 218 0.0 0.0 0.00 0.00 0.00 36 1014.2
20260502222703 15 255 0.0 16.1 0.00 0.00 0.00 26 1014.2
20260502222204 16 263 0.0 1.6 0.00 0.00 0.00 34 1014.1
20260502221703 16 268 0.0 0.0 0.00 0.00 0.00 35 1014.1
20260502221204 16 279 1.6 8.0 0.00 0.00 0.00 35 1014.1
20260502220704 16 284 1.6 9.7 0.00 0.00 0.00 36 1014.2
20260502220204 16 251 3.2 19.3 0.00 0.00 0.00 36 1014.2
20260502215704 16 270 1.6 9.7 0.00 0.00 0.00 34 1014.2
20260502215204 16 270 0.0 0.0 0.00 0.00 0.00 36 1014.2
20260502214705 16 245 0.0 11.3 0.00 0.00 0.00 35 1014.2
20260502214204 16 235 0.0 1.6 0.00 0.00 0.00 37 1014.4
20260502213704 16 206 0.0 0.0 0.00 0.00 0.00 36 1014.4
20260502213203 17 256 0.0 0.0 0.00 0.00 0.00 25 1014.5
20260502212704 16 248 0.0 0.0 0.00 0.00 0.00 36 1014.5
20260502211703 16 356 1.6 3.2 0.00 0.00 0.00 36 1014.7
20260502211203 16 69 0.0 1.6 0.00 0.00 0.00 35 1014.7
20260502210704 17 274 1.6 3.2 0.00 0.00 0.00 35 1014.7
20260502205704 16 262 0.0 0.0 0.00 0.00 0.00 35 1014.9
20260502205204 16 228 0.0 4.8 0.00 0.00 0.00 22 1014.9
20260502204703 17 333 0.0 3.2 0.00 0.00 0.00 34 1014.9
20260502204203 16 270 0.0 1.6 0.00 0.00 0.00 23 1015.1
20260502203704 16 266 0.0 1.6 0.00 0.00 0.00 35 1015.1
20260502203203 17 270 0.0 0.0 0.00 0.00 0.00 32 1015.2
20260502202703 17 270 0.0 1.6 0.00 0.00 0.00 34 1015.2
20260502202204 17 225 0.0 12.9 0.00 0.00 0.00 34 1015.3
20260502201204 16 270 0.0 9.7 0.00 0.00 0.00 34 1015.4
20260502200704 16 219 0.0 24.1 0.00 0.00 0.00 35 1015.6
20260502200204 16 254 0.0 24.1 0.00 0.00 0.00 34 1015.6
20260502195703 17 338 1.6 16.1 0.00 0.00 0.00 26 1015.7
20260502195203 17 311 8.0 16.1 0.00 0.00 0.00 35 1015.7
20260502194704 17 256 3.2 8.0 0.00 0.00 0.00 34 1015.7
20260502194203 16 257 0.0 9.7 0.00 0.00 0.00 26 1015.9
20260502193704 17 234 0.0 3.2 0.00 0.00 0.00 35 1015.9
20260502193203 16 280 0.0 3.2 0.00 0.00 0.00 34 1016.1
20260502192704 17 262 6.4 16.1 0.00 0.00 0.00 33 1016.1
20260502191704 16 309 1.6 4.8 0.00 0.00 0.00 27 1016.2
20260502191204 16 278 1.6 4.8 0.00 0.00 0.00 35 1016.2
20260502190704 15 172 0.0 3.2 0.00 0.00 0.00 24 1016.4
20260502185704 17 333 0.0 1.6 0.00 0.00 0.00 26 1016.5
20260502184704 16 268 1.6 4.8 0.00 0.00 0.00 27 1016.5
20260502184203 16 260 0.0 3.2 0.00 0.00 0.00 35 1016.6
20260502183704 15 268 0.0 1.6 0.00 0.00 0.00 24 1016.6
20260502183204 14 318 0.0 1.6 0.00 0.00 0.00 37 1016.8
20260502182704 15 274 0.0 1.6 0.00 0.00 0.00 24 1016.8
20260502182204 15 117 0.0 0.0 0.00 0.00 0.00 36 1016.9
20260502181704 16 234 0.0 0.0 0.00 0.00 0.00 37 1016.9
20260502181204 15 255 0.0 1.6 0.00 0.00 0.00 38 1016.9
20260502180204 15 260 0.0 14.5 0.00 0.00 0.00 38 1017.1
20260502164203 13 296 0.0 4.8 0.00 0.00 0.00 39 1018.0
20260502163704 13 104 3.2 4.8 0.00 0.00 0.00 42 1018.0
20260502163206 13 343 3.2 12.9 0.00 0.00 0.00 30 1018.1
20260502162704 13 220 0.0 3.2 0.00 0.00 0.00 39 1018.1
20260502161203 13 208 0.0 8.0 0.00 0.00 0.00 42 1018.2
20260502160704 13 303 0.0 0.0 0.00 0.00 0.00 28 1018.4
20260502160204 13 287 3.2 8.0 0.00 0.00 0.00 42 1018.4
20260502152204 11 225 0.0 0.0 0.00 0.00 0.00 46 1018.8
20260502151703 12 244 0.0 0.0 0.00 0.00 0.00 44 1018.8
20260502151204 12 266 4.8 9.7 0.00 0.00 0.00 46 1018.8
20260502150704 11 223 0.0 0.0 0.00 0.00 0.00 46 1018.8
20260502150204 11 188 0.0 0.0 0.00 0.00 0.00 34 1018.8
20260502130704 7 180 0.0 0.0 0.00 0.00 0.00 58 1019.7
20260502130204 7 192 0.0 0.0 0.00 0.00 0.00 56 1019.7
20260502123204 5 189 0.0 0.0 0.00 0.00 0.00 82 1019.7
20260502122704 5 209 0.0 0.0 0.00 0.00 0.00 78 1019.7
20260502122204 4 158 0.0 0.0 0.00 0.00 0.00 76 1019.7
20260502121704 5 112 0.0 0.0 0.00 0.00 0.00 76 1019.7
20260502121204 5 99 0.0 0.0 0.00 0.00 0.00 77 1019.7
20260502120703 5 112 0.0 0.0 0.00 0.00 0.00 74 1019.6
20260502120203 5 112 0.0 0.0 0.00 0.00 0.00 83 1019.6
20260502115704 5 112 0.0 0.0 0.00 0.00 0.00 78 1019.5
20260502115204 5 112 0.0 0.0 0.00 0.00 0.00 79 1019.5
20260502114704 3 112 0.0 0.0 0.00 0.00 0.00 87 1019.5
20260502114204 3 112 0.0 0.0 0.00 0.00 0.00 89 1019.5
20260502113704 2 112 0.0 0.0 0.00 0.00 0.00 90 1019.5
20260502112704 0 202 0.0 0.0 0.00 0.00 0.00 97 1019.4
20260502112204 0 205 0.0 0.0 0.00 0.00 0.00 96 1019.4
20260502111204 0 202 0.0 0.0 0.00 0.00 0.00 97 1019.4
20260502110704 0 202 0.0 0.0 0.00 0.00 0.00 97 1019.5
20260502110204 0 180 0.0 0.0 0.00 0.00 0.00 96 1019.5
20260502105703 0 158 0.0 0.0 0.00 0.00 0.00 98 1019.6
20260502105203 0 135 0.0 0.0 0.00 0.00 0.00 98 1019.6
20260502104704 0 203 0.0 0.0 0.00 0.00 0.00 87 1019.6
20260502104204 0 225 0.0 0.0 0.00 0.00 0.00 97 1019.6
20260502103703 0 202 0.0 0.0 0.00 0.00 0.00 97 1019.6
20260502103203 0 202 0.0 0.0 0.00 0.00 0.00 96 1019.6
20260502102204 0 135 0.0 0.0 0.00 0.00 0.00 96 1019.6
20260502101704 0 202 0.0 0.0 0.00 0.00 0.00 95 1019.7
20260502101204 0 202 0.0 0.0 0.00 0.00 0.00 88 1019.7
20260502100204 0 225 0.0 0.0 0.00 0.00 0.00 94 1019.6
20260502091203 1 225 0.0 0.0 0.00 0.00 0.00 94 1019.7
20260502090704 1 169 0.0 0.0 0.00 0.00 0.00 94 1019.6